Home > Weather > Santa Cruz > Past weeks

Flag for Bolivia Weather for the Past 2 Weeks in Santa Cruz, Bolivia

Now
81 °F

Passing clouds.


Feels Like: 85 °F
Forecast: 76 / 88 °F
Wind: 7 mph from North

Location: Viru-Viru

Current Time: Feb 13, 2016 at 10:49:43 PM

Latest Report: Feb 13, 2016 at 10:00 PM


Visibility: N/A

Pressure: 29.80 "Hg

Humidity: 79%

Dew point: 73 °F

Location of Santa CruzLocation

Historic Weather in Santa Cruz — Graph

°F

Santa Cruz Temperature Yesterday

Maximum temperature yesterday: 93 °F (at 2:00 PM)
Minimum temperature yesterday: 75 °F (at 2:00 AM)
Average temperature yesterday: 82 °F

High & Low Weather Summary for the Past Weeks

 TemperatureHumidityPressure
High93 °F (Feb 8, 2:00 PM)100% (Jan 30, 12:00 AM)30.01 "Hg (Jan 30, 12:00 AM)
Low72 °F (Jan 30, 9:00 AM)43% (Feb 1, 5:00 PM)29.71 "Hg (Feb 13, 5:00 PM)
Average80 °F81%29.88 "Hg
* Reported Jan 29 9:00 PM — Feb 13 9:00 PM, Santa Cruz, Weather by CustomWeather, © 2016

Note: Actual official high and low records may vary slightly from our data, if they occured in-between our weather recording intervals... More about our weather records

Advertising

Santa Cruz Weather History for the Previous 24 Hours

 ConditionsComfort  
Time TempWeatherWind HumidityBarometerVisibility
9:00 PM
Sat, Feb 13
84 °FPassing clouds.8 mph70%29.77 "HgN/A
8:00 PM82 °FPassing clouds.10 mph74%29.74 "HgN/A
7:00 PM84 °FPassing clouds.15 mph66%29.71 "HgN/A
6:00 PM88 °FScattered clouds.22 mph59%29.71 "HgN/A
5:00 PM90 °FScattered clouds.18 mph55%29.71 "HgN/A
4:00 PM90 °FScattered clouds.18 mph55%29.74 "HgN/A
3:00 PM90 °FPartly sunny.20 mph55%29.74 "HgN/A
2:00 PM91 °FPartly sunny.23 mph52%29.77 "HgN/A
1:00 PM91 °FPartly sunny.23 mph52%29.77 "HgN/A
12:00 PM90 °FPartly sunny.23 mph55%29.80 "HgN/A
11:00 AM86 °FBroken clouds.21 mph66%29.83 "HgN/A
10:00 AM84 °FBroken clouds.17 mph70%29.83 "HgN/A
9:00 AM81 °FBroken clouds.17 mph79%29.83 "HgN/A
8:00 AM79 °FBroken clouds.16 mph89%29.80 "HgN/A
7:00 AM77 °FPartly sunny.17 mph94%29.77 "HgN/A
6:00 AM77 °FPassing clouds.17 mph94%29.77 "HgN/A
5:00 AM77 °FPassing clouds.18 mph94%29.74 "HgN/A
4:00 AM77 °FPassing clouds.17 mph100%29.77 "HgN/A
3:00 AM77 °FPassing clouds.17 mph94%29.77 "HgN/A
2:00 AM77 °FPassing clouds.17 mph94%29.77 "HgN/A
1:00 AM77 °FPassing clouds.17 mph94%29.77 "HgN/A
12:00 AM77 °FPassing clouds.14 mph94%29.77 "HgN/A
11:00 PM
Fri, Feb 12
79 °FPassing clouds.12 mph89%29.80 "HgN/A
10:00 PM79 °FPassing clouds.12 mph89%29.80 "HgN/A
Weather by CustomWeather, © 2016

See weather overviewHow to use our weather pages